O3b星座 FM19星 (O3B FM19)

导读

O3B FM19是由阿莱尼亚宇航公司建造、SES公司运营的中地球轨道通信卫星,属于O3b星座系统。该卫星于北京时间2019年4月4日发射升空,定点于约8070公里高度的赤道轨道,设计使用寿命10年,重量约700公斤。作为低延迟宽带卫星,它为全球提供互联网接入服务,相比同步轨道卫星显著降低信号延迟。

Basic Information
目录编号:
44113
目录名称:
O3B FM19
国际标识:
2019-020B
轨道中心:
EARTH
卫星名称:
O3b星座 FM19星
卫星全名:
O3b星座 FM19星 (O3B FM19)
卫星状态:
在轨 (已飞行2630 天)
发射日期:
2019-04-04 UTC
国别 :
(O3B)
星等 :
--
Orbit Information
数据来源 国际轨道数据 AOE轨道数据
星历时间 2026-06-15T13:45:47+0800
1天前
查看轨道信息
2026-06-14T07:00:00+0800
2天前
查看轨道信息
半长轴 14444.022km 14444.016km
偏心率 0.0003894 0.0004068
轨道倾角 0.077° 0.078°
近地点辐角 86.915° 84.292°
升交点赤经 341.065° 341.694°
平近点角 292.061° 145.573°
近地点 8060.26km 8060.003km
远地点 8071.51km 8071.755km
周期 287.933分钟 287.933分钟
每日圈数 5.001158 5.001161
Detailed Information
平衡模式:
三轴稳定
覆盖范围:
全球
运营商:
欧洲卫星公司
运营商所在国:
卢森堡
制造商(研发单位):
阿莱尼亚宇航公司
制造商所在国:
意大利
使用方式:
暂无
Satellite Introduction
O3b卫星星座分为O3b FM卫星星座和O3b mPOWER卫星星座,前者是由阿莱尼亚宇航公司制造的第一代O3b卫星星座,后者是由波音公司制造的第二代O3b卫星星座。O3b卫星初始星座运行于赤道圆轨道,轨道高度8062公里,能够覆盖全球南北纬45°之间所有地方,在南、北纬45°~62°范围内也能提供一定的服务。该卫星仍在工作。
2D Orbit Map
3D Orbit Map
Orbit Altitude Analysis Chart
Orbit Inclination Analysis Chart
Orbit Comprehensive Analysis Chart
View Comprehensive Chart